map of FEN home
FEN - Airport
Location
City:  Fernando de Noronha, FN, Pernambuco, Brazil
ICAO:SBFN
IATA:FEN

Details
Type:Airport (Aerodrome, Airfield)
Latitude:351'18"S (-3.854927)
Longitude:3225'24"W (-32.423335)
Datum:WGS 1984
Elevation:193 ft (59 m)
Variation:20.08W (WMM2015 magnetic declination)
0.07 annual change
Runways:1
Longest:6053 × 148 ft (1845 × 45 m), paved

Time
Time Zone:UTC-3
Local Time:

Weather
METAR:SBFN 240900Z 11010KT 9999 SCT015 27/23 Q1013
TAF:SBFN 240300Z 2406/2418 13010KT 7000 BKN015 TN25/2408Z TX28/2415Z
TEMPO 2407/2410 4000 RA BKN012
BECMG 2410/2412 SCT017
RMK PCH

Related Locations
Nearby:
Farthest:TKK: 12057 mi / 19404 km
Weno Island [Chuuk Intl (Truk Intl)], TRK, FM

Find:

   beyond  
but within

Other Information
Maps:
NOTAMs:
Links:
Sources:

  
flag of Brazil
flag of Pernambuco
flag of Fernando de Noronha
  

Sectional Chart

Flight Planning
at skyvector.com

Satellite Image

Google Maps Satellite view

 

Copyright © 2004-2017 Karl L. Swartz. All rights reserved.
The Great Circle Mapper name and logo are trademarks of the Great Circle Mapper.
All other trademarks mentioned herein belong to their respective owners.
Please see credits for attibutions and further copyright information.

  Follow gcmap on Facebook Follow gcmap on Twitter Follow gcmap on Google+ GCmap on LinkedIn

hCard Microformat

Geo Microformat